Time,TemperatureF,DewpointF,PressureIn,WindDirection,WindDirectionDegrees,WindSpeedMPH,WindSpeedGustMPH,Humidity,HourlyPrecipIn,Conditions,Clouds,dailyrainin,SoftwareType,DateUTC
2013-05-05 00:02:00,63.0,58.0,29.89,SE,143,7.0,9.0,83,0.00,,,0.00,,2013-05-05 00:02:00,
2013-05-05 00:11:00,63.0,58.0,29.89,SE,143,7.0,9.0,83,0.00,,,0.00,,2013-05-05 00:11:00,
2013-05-05 00:21:00,62.0,57.0,29.90,SSE,149,4.0,8.0,83,0.00,,,0.00,,2013-05-05 00:21:00,
2013-05-05 00:32:00,62.0,57.0,29.91,SSW,192,1.0,7.0,84,0.00,,,0.00,,2013-05-05 00:32:00,
2013-05-05 00:42:00,62.0,57.0,29.91,SSW,192,1.0,7.0,84,0.00,,,0.00,,2013-05-05 00:42:00,
2013-05-05 00:51:00,62.0,57.0,29.91,South,180,0.0,5.0,84,0.00,,,0.00,,2013-05-05 00:51:00,
2013-05-05 01:01:00,61.0,56.0,29.91,SSW,198,0.0,7.0,85,0.00,,,0.00,,2013-05-05 01:01:00,
2013-05-05 01:11:00,61.0,56.0,29.91,SSW,198,0.0,7.0,85,0.00,,,0.00,,2013-05-05 01:11:00,
2013-05-05 01:21:00,60.0,55.0,29.92,SSE,160,2.0,6.0,84,0.00,,,0.00,,2013-05-05 01:21:00,
2013-05-05 01:32:00,60.0,56.0,29.93,SSE,160,0.0,6.0,86,0.00,,,0.00,,2013-05-05 01:32:00,
2013-05-05 01:42:00,60.0,56.0,29.93,SSE,160,0.0,6.0,86,0.00,,,0.00,,2013-05-05 01:42:00,
2013-05-05 01:52:00,60.0,56.0,29.94,SSE,160,0.0,4.0,86,0.00,,,0.00,,2013-05-05 01:52:00,
2013-05-05 02:02:00,60.0,56.0,29.95,SSE,160,0.0,0.0,86,0.00,,,0.00,,2013-05-05 02:02:00,
2013-05-05 02:11:00,60.0,56.0,29.95,SSE,160,0.0,0.0,86,0.00,,,0.00,,2013-05-05 02:11:00,
2013-05-05 02:22:00,59.0,55.0,29.95,SSE,160,0.0,0.0,87,0.00,,,0.00,,2013-05-05 02:22:00,
2013-05-05 02:31:00,59.0,55.0,29.95,SSE,160,0.0,1.0,88,0.00,,,0.00,,2013-05-05 02:31:00,
2013-05-05 02:42:00,59.0,55.0,29.95,SSE,160,0.0,1.0,88,0.00,,,0.00,,2013-05-05 02:42:00,
2013-05-05 02:52:00,59.0,56.0,29.95,SSE,160,0.0,0.0,90,0.00,,,0.00,,2013-05-05 02:52:00,
2013-05-05 03:01:00,59.0,56.0,29.95,SSE,160,0.0,0.0,90,0.00,,,0.00,,2013-05-05 03:01:00,
2013-05-05 03:11:00,59.0,56.0,29.95,SSE,160,0.0,0.0,90,0.00,,,0.00,,2013-05-05 03:11:00,
2013-05-05 03:21:00,58.0,55.0,29.96,SSE,160,0.0,0.0,90,0.00,,,0.00,,2013-05-05 03:21:00,
2013-05-05 03:33:00,58.0,55.0,29.96,SSE,160,0.0,0.0,90,0.00,,,0.00,,2013-05-05 03:33:00,
2013-05-05 03:42:00,58.0,55.0,29.96,SSE,160,0.0,0.0,90,0.00,,,0.00,,2013-05-05 03:42:00,
2013-05-05 03:53:00,58.0,55.0,29.96,SSE,160,0.0,0.0,90,0.00,,,0.00,,2013-05-05 03:53:00,
2013-05-05 04:02:00,57.0,54.0,29.96,SSE,160,0.0,0.0,91,0.00,,,0.00,,2013-05-05 04:02:00,
2013-05-05 04:12:00,57.0,54.0,29.96,SSE,160,0.0,0.0,91,0.00,,,0.00,,2013-05-05 04:12:00,
2013-05-05 04:22:00,56.0,54.0,29.96,SSE,160,0.0,0.0,92,0.00,,,0.00,,2013-05-05 04:22:00,
2013-05-05 04:32:00,56.0,54.0,29.96,SSE,160,0.0,0.0,93,0.00,,,0.00,,2013-05-05 04:32:00,
2013-05-05 04:43:00,56.0,54.0,29.96,SSE,160,0.0,0.0,93,0.00,,,0.00,,2013-05-05 04:43:00,
2013-05-05 04:53:00,55.0,53.0,29.96,SSE,160,0.0,0.0,93,0.00,,,0.00,,2013-05-05 04:53:00,
2013-05-05 05:02:00,55.0,53.0,29.96,SSE,160,0.0,0.0,94,0.00,,,0.00,,2013-05-05 05:02:00,
2013-05-05 05:12:00,55.0,53.0,29.96,SSE,160,0.0,0.0,94,0.00,,,0.00,,2013-05-05 05:12:00,
2013-05-05 05:21:00,55.0,53.0,29.96,SSE,160,0.0,0.0,94,0.00,,,0.00,,2013-05-05 05:21:00,
2013-05-05 05:31:00,55.0,53.0,29.96,SSE,160,0.0,0.0,94,0.00,,,0.00,,2013-05-05 05:31:00,
2013-05-05 05:42:00,55.0,53.0,29.96,SSE,160,0.0,0.0,94,0.00,,,0.00,,2013-05-05 05:42:00,
2013-05-05 05:51:00,54.0,53.0,29.96,SSE,160,0.0,0.0,95,0.00,,,0.00,,2013-05-05 05:51:00,
2013-05-05 06:01:00,54.0,53.0,29.96,SSE,160,0.0,0.0,95,0.00,,,0.00,,2013-05-05 06:01:00,
2013-05-05 06:12:00,54.0,53.0,29.96,SSE,160,0.0,0.0,95,0.00,,,0.00,,2013-05-05 06:12:00,
2013-05-05 06:21:00,53.0,52.0,29.96,SSE,160,0.0,0.0,95,0.00,,,0.00,,2013-05-05 06:21:00,
2013-05-05 06:32:00,53.0,52.0,29.96,SSE,160,0.0,2.0,96,0.00,,,0.00,,2013-05-05 06:32:00,
2013-05-05 06:42:00,53.0,52.0,29.96,SSE,160,0.0,2.0,96,0.00,,,0.00,,2013-05-05 06:42:00,
2013-05-05 06:52:00,53.0,52.0,29.96,SSE,160,1.0,2.0,96,0.00,,,0.00,,2013-05-05 06:52:00,
2013-05-05 07:01:00,53.0,52.0,29.96,SSE,160,1.0,2.0,96,0.00,,,0.00,,2013-05-05 07:01:00,
2013-05-05 07:11:00,53.0,52.0,29.96,SSE,160,1.0,2.0,96,0.00,,,0.00,,2013-05-05 07:11:00,
2013-05-05 07:21:00,52.0,51.0,29.94,SSE,160,0.0,0.0,96,0.00,,,0.00,,2013-05-05 07:21:00,
2013-05-05 07:32:00,52.0,51.0,29.94,SSE,160,0.0,0.0,97,0.00,,,0.00,,2013-05-05 07:32:00,
2013-05-05 07:42:00,52.0,51.0,29.94,SSE,160,0.0,0.0,97,0.00,,,0.00,,2013-05-05 07:42:00,
2013-05-05 07:52:00,52.0,51.0,29.94,SSE,160,0.0,0.0,97,0.00,,,0.00,,2013-05-05 07:52:00,
2013-05-05 08:02:00,51.0,50.0,29.93,SSE,160,0.0,0.0,96,0.00,,,0.00,,2013-05-05 08:02:00,
2013-05-05 08:11:00,51.0,50.0,29.93,SSE,160,0.0,0.0,96,0.00,,,0.00,,2013-05-05 08:11:00,
2013-05-05 08:21:00,51.0,50.0,29.93,SSE,160,0.0,1.0,97,0.00,,,0.00,,2013-05-05 08:21:00,
2013-05-05 08:31:00,51.0,50.0,29.93,SSE,160,0.0,0.0,97,0.00,,,0.00,,2013-05-05 08:31:00,
2013-05-05 08:42:00,51.0,50.0,29.93,SSE,160,0.0,0.0,97,0.00,,,0.00,,2013-05-05 08:42:00,
2013-05-05 08:53:00,50.0,49.0,29.93,SSE,160,0.0,0.0,97,0.00,,,0.00,,2013-05-05 08:53:00,
2013-05-05 09:01:00,50.0,49.0,29.93,SSE,160,0.0,0.0,97,0.01,,,0.01,,2013-05-05 09:01:00,
2013-05-05 09:11:00,50.0,49.0,29.93,SSE,160,0.0,0.0,97,0.01,,,0.01,,2013-05-05 09:11:00,
2013-05-05 09:21:00,50.0,49.0,29.93,SSE,160,0.0,0.0,97,0.01,,,0.01,,2013-05-05 09:21:00,
2013-05-05 09:32:00,50.0,49.0,29.93,SSE,160,0.0,0.0,97,0.01,,,0.01,,2013-05-05 09:32:00,
2013-05-05 09:42:00,50.0,49.0,29.93,SSE,160,0.0,0.0,97,0.01,,,0.01,,2013-05-05 09:42:00,
2013-05-05 09:52:00,49.0,48.0,29.93,SSE,160,0.0,0.0,97,0.01,,,0.01,,2013-05-05 09:52:00,
2013-05-05 10:02:00,49.0,48.0,29.93,SSE,160,0.0,0.0,97,0.01,,,0.01,,2013-05-05 10:02:00,
2013-05-05 10:12:00,49.0,48.0,29.93,SSE,160,0.0,0.0,97,0.01,,,0.01,,2013-05-05 10:12:00,
2013-05-05 10:22:00,49.0,48.0,29.92,SSE,160,0.0,0.0,98,0.00,,,0.01,,2013-05-05 10:22:00,
2013-05-05 10:32:00,49.0,48.0,29.92,SSE,160,0.0,0.0,97,0.00,,,0.01,,2013-05-05 10:32:00,
2013-05-05 10:42:00,49.0,48.0,29.92,SSE,160,0.0,0.0,97,0.00,,,0.01,,2013-05-05 10:42:00,
2013-05-05 10:53:00,49.0,48.0,29.92,SSE,160,0.0,0.0,98,0.00,,,0.01,,2013-05-05 10:53:00,
2013-05-05 11:01:00,49.0,48.0,29.92,SSE,160,0.0,0.0,98,0.00,,,0.01,,2013-05-05 11:01:00,
2013-05-05 11:12:00,49.0,48.0,29.92,SSE,160,0.0,0.0,98,0.00,,,0.01,,2013-05-05 11:12:00,
2013-05-05 11:21:00,49.0,48.0,29.92,SSE,160,0.0,2.0,98,0.00,,,0.01,,2013-05-05 11:21:00,
2013-05-05 11:32:00,49.0,48.0,29.92,NW,310,0.0,1.0,98,0.00,,,0.01,,2013-05-05 11:32:00,
2013-05-05 11:42:00,49.0,48.0,29.92,NW,310,0.0,1.0,98,0.00,,,0.01,,2013-05-05 11:42:00,
2013-05-05 11:51:00,49.0,48.0,29.93,NW,310,0.0,0.0,98,0.00,,,0.01,,2013-05-05 11:51:00,
2013-05-05 12:02:00,49.0,48.0,29.93,NW,310,0.0,0.0,98,0.00,,,0.01,,2013-05-05 12:02:00,
2013-05-05 12:11:00,49.0,48.0,29.93,NW,310,0.0,0.0,98,0.00,,,0.01,,2013-05-05 12:11:00,
2013-05-05 12:21:00,51.0,50.0,29.93,NW,310,0.0,2.0,98,0.00,,,0.01,,2013-05-05 12:21:00,
2013-05-05 12:32:00,51.0,51.0,29.93,NW,310,0.0,0.0,99,0.00,,,0.01,,2013-05-05 12:32:00,
2013-05-05 12:42:00,51.0,51.0,29.93,NW,310,0.0,0.0,99,0.00,,,0.01,,2013-05-05 12:42:00,
2013-05-05 12:52:00,52.0,52.0,29.94,NW,310,0.0,1.0,99,0.00,,,0.01,,2013-05-05 12:52:00,
2013-05-05 13:01:00,53.0,53.0,29.95,NNW,338,0.0,4.0,99,0.00,,,0.01,,2013-05-05 13:01:00,
2013-05-05 13:11:00,53.0,53.0,29.95,NNW,338,0.0,4.0,99,0.00,,,0.01,,2013-05-05 13:11:00,
2013-05-05 13:21:00,54.0,54.0,29.95,NNW,339,0.0,3.0,99,0.00,,,0.01,,2013-05-05 13:21:00,
2013-05-05 13:32:00,56.0,56.0,29.95,North,11,2.0,5.0,99,0.00,,,0.01,,2013-05-05 13:32:00,
2013-05-05 13:42:00,56.0,56.0,29.95,North,11,2.0,5.0,99,0.00,,,0.01,,2013-05-05 13:42:00,
2013-05-05 13:52:00,57.0,55.0,29.95,NNE,19,4.0,8.0,94,0.00,,,0.01,,2013-05-05 13:52:00,
2013-05-05 14:02:00,59.0,54.0,29.95,NNE,25,6.0,7.0,84,0.00,,,0.01,,2013-05-05 14:02:00,
2013-05-05 14:11:00,59.0,54.0,29.95,NNE,25,6.0,7.0,84,0.00,,,0.01,,2013-05-05 14:11:00,
2013-05-05 14:21:00,59.0,52.0,29.94,NE,34,4.0,10.0,78,0.00,,,0.01,,2013-05-05 14:21:00,
2013-05-05 14:31:00,59.0,52.0,29.94,NE,34,4.0,10.0,78,0.00,,,0.01,,2013-05-05 14:31:00,
2013-05-05 14:42:00,59.0,52.0,29.94,NE,34,4.0,10.0,78,0.00,,,0.01,,2013-05-05 14:42:00,
2013-05-05 14:52:00,61.0,52.0,29.95,NNE,26,4.0,11.0,73,0.00,,,0.01,,2013-05-05 14:52:00,
2013-05-05 15:02:00,63.0,53.0,29.95,NNE,26,4.0,10.0,70,0.00,,,0.01,,2013-05-05 15:02:00,
2013-05-05 15:11:00,63.0,53.0,29.95,NNE,26,4.0,10.0,70,0.00,,,0.01,,2013-05-05 15:11:00,
2013-05-05 15:21:00,64.0,54.0,29.95,ENE,66,3.0,8.0,69,0.00,,,0.01,,2013-05-05 15:21:00,
2013-05-05 15:33:00,65.0,53.0,29.95,ENE,57,3.0,11.0,66,0.00,,,0.01,,2013-05-05 15:33:00,
2013-05-05 15:43:00,65.0,53.0,29.95,ENE,57,3.0,11.0,66,0.00,,,0.01,,2013-05-05 15:43:00,
2013-05-05 15:53:00,66.0,54.0,29.95,North,10,4.0,7.0,65,0.00,,,0.01,,2013-05-05 15:53:00,
2013-05-05 16:03:00,67.0,54.0,29.95,ENE,78,4.0,8.0,62,0.00,,,0.01,,2013-05-05 16:03:00,
2013-05-05 16:12:00,67.0,54.0,29.95,ENE,78,4.0,8.0,62,0.00,,,0.01,,2013-05-05 16:12:00,
2013-05-05 16:23:00,66.0,52.0,29.95,NE,34,3.0,11.0,61,0.00,,,0.01,,2013-05-05 16:23:00,
2013-05-05 16:32:00,66.0,52.0,29.95,NE,34,3.0,11.0,61,0.00,,,0.01,,2013-05-05 16:32:00,
2013-05-05 16:42:00,66.0,52.0,29.95,NE,34,3.0,11.0,61,0.00,,,0.01,,2013-05-05 16:42:00,
2013-05-05 16:52:00,66.0,52.0,29.95,NE,34,3.0,11.0,61,0.00,,,0.01,,2013-05-05 16:52:00,
2013-05-05 17:02:00,69.0,54.0,29.94,NE,48,2.0,8.0,59,0.00,,,0.01,,2013-05-05 17:02:00,
2013-05-05 17:12:00,69.0,54.0,29.94,NE,48,2.0,8.0,59,0.00,,,0.01,,2013-05-05 17:12:00,
2013-05-05 17:23:00,70.0,55.0,29.94,East,84,1.0,7.0,58,0.00,,,0.01,,2013-05-05 17:23:00,
2013-05-05 17:32:00,72.0,54.0,29.93,East,100,5.0,11.0,53,0.00,,,0.01,,2013-05-05 17:32:00,
2013-05-05 17:42:00,72.0,54.0,29.93,East,100,5.0,11.0,53,0.00,,,0.01,,2013-05-05 17:42:00,
2013-05-05 17:52:00,72.0,53.0,29.92,NW,306,2.0,10.0,52,0.00,,,0.01,,2013-05-05 17:52:00,
2013-05-05 18:01:00,73.0,53.0,29.91,NNE,27,3.0,16.0,49,0.00,,,0.01,,2013-05-05 18:01:00,
2013-05-05 18:12:00,73.0,53.0,29.91,NNE,27,3.0,16.0,49,0.00,,,0.01,,2013-05-05 18:12:00,
2013-05-05 18:21:00,73.0,52.0,29.91,East,85,4.0,13.0,47,0.00,,,0.01,,2013-05-05 18:21:00,
2013-05-05 18:32:00,73.0,53.0,29.90,North,11,4.0,11.0,49,0.00,,,0.01,,2013-05-05 18:32:00,
2013-05-05 18:42:00,73.0,53.0,29.90,North,11,4.0,11.0,49,0.00,,,0.01,,2013-05-05 18:42:00,
2013-05-05 18:52:00,74.0,51.0,29.90,ENE,69,5.0,12.0,44,0.00,,,0.01,,2013-05-05 18:52:00,
2013-05-05 19:01:00,75.0,50.0,29.90,NNE,22,4.0,13.0,42,0.00,,,0.01,,2013-05-05 19:01:00,
2013-05-05 19:11:00,75.0,50.0,29.90,NNE,22,4.0,13.0,42,0.00,,,0.01,,2013-05-05 19:11:00,
2013-05-05 19:21:00,75.0,49.0,29.89,ENE,65,6.0,12.0,40,0.00,,,0.01,,2013-05-05 19:21:00,
2013-05-05 19:32:00,75.0,46.0,29.88,NE,50,8.0,14.0,36,0.00,,,0.01,,2013-05-05 19:32:00,
2013-05-05 19:42:00,75.0,46.0,29.88,NE,50,8.0,14.0,36,0.00,,,0.01,,2013-05-05 19:42:00,
2013-05-05 19:52:00,75.0,48.0,29.89,East,86,7.0,14.0,38,0.00,,,0.01,,2013-05-05 19:52:00,
2013-05-05 20:01:00,75.0,47.0,29.89,ENE,63,6.0,14.0,37,0.00,,,0.01,,2013-05-05 20:01:00,
2013-05-05 20:11:00,75.0,47.0,29.89,ENE,63,6.0,14.0,37,0.00,,,0.01,,2013-05-05 20:11:00,
2013-05-05 20:21:00,74.0,48.0,29.88,East,97,2.0,11.0,40,0.00,,,0.01,,2013-05-05 20:21:00,
2013-05-05 20:31:00,75.0,48.0,29.88,NNE,24,3.0,14.0,39,0.00,,,0.01,,2013-05-05 20:31:00,
2013-05-05 20:42:00,75.0,48.0,29.88,NNE,24,3.0,14.0,39,0.00,,,0.01,,2013-05-05 20:42:00,
2013-05-05 20:52:00,75.0,48.0,29.88,ENE,62,4.0,12.0,38,0.00,,,0.01,,2013-05-05 20:52:00,
2013-05-05 21:02:00,75.0,50.0,29.88,East,84,2.0,11.0,41,0.00,,,0.01,,2013-05-05 21:02:00,
2013-05-05 21:11:00,75.0,50.0,29.88,East,84,2.0,11.0,41,0.00,,,0.01,,2013-05-05 21:11:00,
2013-05-05 21:21:00,74.0,47.0,29.88,ENE,71,4.0,13.0,38,0.00,,,0.01,,2013-05-05 21:21:00,
2013-05-05 21:33:00,74.0,46.0,29.87,ENE,78,7.0,8.0,37,0.00,,,0.01,,2013-05-05 21:33:00,
2013-05-05 21:42:00,74.0,46.0,29.87,ENE,78,7.0,8.0,37,0.00,,,0.01,,2013-05-05 21:42:00,
2013-05-05 21:53:00,74.0,46.0,29.87,East,88,7.0,14.0,37,0.00,,,0.01,,2013-05-05 21:53:00,
2013-05-05 22:02:00,74.0,46.0,29.87,East,88,7.0,14.0,37,0.00,,,0.01,,2013-05-05 22:02:00,
2013-05-05 22:12:00,74.0,46.0,29.87,East,88,7.0,14.0,37,0.00,,,0.01,,2013-05-05 22:12:00,
2013-05-05 22:22:00,74.0,47.0,29.87,NNE,19,6.0,10.0,38,0.00,,,0.01,,2013-05-05 22:22:00,
2013-05-05 22:33:00,73.0,47.0,29.88,NE,38,3.0,11.0,40,0.00,,,0.01,,2013-05-05 22:33:00,
2013-05-05 22:42:00,73.0,47.0,29.88,NE,38,3.0,11.0,40,0.00,,,0.01,,2013-05-05 22:42:00,
2013-05-05 22:52:00,72.0,48.0,29.88,East,85,7.0,10.0,42,0.00,,,0.01,,2013-05-05 22:52:00,
2013-05-05 23:02:00,72.0,48.0,29.88,NE,56,4.0,12.0,42,0.00,,,0.01,,2013-05-05 23:02:00,
2013-05-05 23:11:00,72.0,48.0,29.88,NE,56,4.0,12.0,42,0.00,,,0.01,,2013-05-05 23:11:00,
2013-05-05 23:21:00,72.0,46.0,29.88,East,89,11.0,11.0,40,0.00,,,0.01,,2013-05-05 23:21:00,
2013-05-05 23:32:00,72.0,46.0,29.88,East,89,11.0,11.0,40,0.00,,,0.01,,2013-05-05 23:32:00,
2013-05-05 23:42:00,72.0,46.0,29.88,East,89,11.0,11.0,40,0.00,,,0.01,,2013-05-05 23:42:00,
2013-05-05 23:52:00,71.0,45.0,29.88,NNE,20,6.0,15.0,39,0.00,,,0.01,,2013-05-05 23:52:00,